FW0807 Weather Reports


Display with metric or nautical units.
time (UTC)temp
F
wind
direction
speed
MPH
gust
MPH
rain 1hr
in
rain 24hr
in
rain mn
in
humidity
%
barometer
mb
20260903214007 97 0.0 0.0 0.00 0.00 0.00 47 1013.1
20260903213514 98 0.0 0.0 0.00 0.00 0.00 47 1013.1
20260903213027 98 0.0 0.0 0.00 0.00 0.00 45 1013.1
20260903212515 99 0.0 0.0 0.00 0.00 0.00 46 1013.1
20260903212007 98 0.0 0.0 0.00 0.00 0.00 46 1013.1
20260903211526 98 0.0 0.0 0.00 0.00 0.00 45 1013.2
20260903211015 99 0.0 0.0 0.00 0.00 0.00 45 1013.2
20260903210507 99 0.0 0.0 0.00 0.00 0.00 45 1013.4
20260903210027 99 0.0 0.0 0.00 0.00 0.00 46 1013.5
20260903205516 99 0.0 0.0 0.00 0.00 0.00 46 1013.4
20260903205007 100 0.0 0.0 0.00 0.00 0.00 45 1013.5
20260903204518 99 0.0 0.0 0.00 0.00 0.00 46 1013.6
20260903204009 99 0.0 0.0 0.00 0.00 0.00 46 1013.6
20260903203513 99 0.0 0.0 0.00 0.00 0.00 46 1013.6
20260903203018 97 0.0 0.0 0.00 0.00 0.00 48 1013.7
20260903202512 96 0.0 0.0 0.00 0.00 0.00 48 1013.8
20260903202016 97 0.0 0.0 0.00 0.00 0.00 48 1013.8
20260903201527 96 0.0 0.0 0.00 0.00 0.00 48 1013.9
20260903201010 98 0.0 0.0 0.00 0.00 0.00 46 1013.9
20260903200513 99 0.0 0.0 0.00 0.00 0.00 45 1013.9
20260903200030 99 0.0 0.0 0.00 0.00 0.00 45 1014.0
20260903195507 99 0.0 0.0 0.00 0.00 0.00 46 1014.0
20260903195011 98 0.0 0.0 0.00 0.00 0.00 47 1014.0
20260903194543 97 0.0 0.0 0.00 0.00 0.00 47 1014.1
20260903194023 99 0.0 0.0 0.00 0.00 0.00 45 1014.2
20260903193512 99 0.0 0.0 0.00 0.00 0.00 45 1014.1
20260903193023 99 0.0 0.0 0.00 0.00 0.00 44 1014.2
20260903192512 100 0.0 0.0 0.00 0.00 0.00 44 1014.2
20260903192012 98 0.0 0.0 0.00 0.00 0.00 46 1014.2
20260903191524 97 0.0 0.0 0.00 0.00 0.00 47 1014.3
20260903191014 98 0.0 0.0 0.00 0.00 0.00 46 1014.4
20260903190512 99 0.0 0.0 0.00 0.00 0.00 45 1014.4
20260903190019 99 0.0 0.0 0.00 0.00 0.00 45 1014.6
20260903185515 97 0.0 0.0 0.00 0.00 0.00 48 1014.6
20260903185013 96 0.0 0.0 0.00 0.00 0.00 47 1014.7
20260903184531 97 0.0 0.0 0.00 0.00 0.00 46 1014.6
20260903184013 97 0.0 0.0 0.00 0.00 0.00 46 1014.9
20260903183515 97 0.0 0.0 0.00 0.00 0.00 46 1015.0
20260903183030 96 0.0 0.0 0.00 0.00 0.00 47 1015.1
20260903182508 99 0.0 0.0 0.00 0.00 0.00 44 1015.1
20260903182008 98 0.0 0.0 0.00 0.00 0.00 45 1015.1
20260903181524 98 0.0 0.0 0.00 0.00 0.00 46 1015.2
20260903181011 98 0.0 0.0 0.00 0.00 0.00 47 1015.2
20260903180512 97 0.0 0.0 0.00 0.00 0.00 47 1015.2
20260903180027 97 0.0 0.0 0.00 0.00 0.00 48 1015.4
20260903175515 97 0.0 0.0 0.00 0.00 0.00 48 1015.5
20260903175008 98 0.0 0.0 0.00 0.00 0.00 48 1015.5
20260903174526 98 0.0 0.0 0.00 0.00 0.00 48 1015.6
20260903174017 98 0.0 0.0 0.00 0.00 0.00 49 1015.5
20260903173516 98 0.0 0.0 0.00 0.00 0.00 49 1015.6
20260903173025 97 0.0 0.0 0.00 0.00 0.00 49 1015.7
20260903172513 97 0.0 0.0 0.00 0.00 0.00 49 1015.8
20260903172017 97 0.0 0.0 0.00 0.00 0.00 50 1015.8
20260903171520 98 0.0 0.0 0.00 0.00 0.00 49 1015.9
20260903171010 98 0.0 0.0 0.00 0.00 0.00 50 1015.9
20260903170510 96 0.0 0.0 0.00 0.00 0.00 50 1015.9
20260903170023 96 0.0 0.0 0.00 0.00 0.00 51 1016.0
20260903165512 96 0.0 0.0 0.00 0.00 0.00 53 1016.0
20260903165012 95 0.0 0.0 0.00 0.00 0.00 53 1016.1
20260903164505 95 0.0 0.0 0.00 0.00 0.00 54 1016.2
20260903164003 94 0.0 0.0 0.00 0.00 0.00 55 1016.2
20260903163503 94 0.0 0.0 0.00 0.00 0.00 55 1016.3
20260903163016 95 0.0 0.0 0.00 0.00 0.00 54 1016.2
20260903162504 95 0.0 0.0 0.00 0.00 0.00 56 1016.2
20260903162006 94 0.0 0.0 0.00 0.00 0.00 56 1016.4
20260903161504 93 0.0 0.0 0.00 0.00 0.00 58 1016.5
20260903161003 94 0.0 0.0 0.00 0.00 0.00 56 1016.5
20260903160503 94 0.0 0.0 0.00 0.00 0.00 56 1016.5
20260903160016 94 0.0 0.0 0.00 0.00 0.00 56 1016.4
20260903155504 94 0.0 0.0 0.00 0.00 0.00 56 1016.4
20260903155007 94 0.0 0.0 0.00 0.00 0.00 56 1016.5
20260903154508 93 0.0 0.0 0.00 0.00 0.00 58 1016.5
20260903154003 92 0.0 0.0 0.00 0.00 0.00 59 1016.5
20260903153503 92 0.0 0.0 0.00 0.00 0.00 59 1016.5
20260903153008 92 0.0 0.0 0.00 0.00 0.00 59 1016.6
20260903152504 92 0.0 0.0 0.00 0.00 0.00 59 1016.6
20260903152006 92 0.0 0.0 0.00 0.00 0.00 59 1016.6
20260903151511 92 0.0 0.0 0.00 0.00 0.00 59 1016.7
20260903151011 91 0.0 0.0 0.00 0.00 0.00 60 1016.6
20260903150503 91 0.0 0.0 0.00 0.00 0.00 61 1016.6
20260903150028 90 0.0 0.0 0.00 0.00 0.00 62 1016.6
20260903145504 90 0.0 0.0 0.00 0.00 0.00 62 1016.6
20260903145007 90 0.0 0.0 0.00 0.00 0.00 62 1016.7
20260903144510 90 0.0 0.0 0.00 0.00 0.00 63 1016.7
20260903144006 90 0.0 0.0 0.00 0.00 0.00 64 1016.8
20260903143505 89 0.0 0.0 0.00 0.00 0.00 64 1016.8
20260903143005 89 0.0 0.0 0.00 0.00 0.00 64 1016.8
20260903142508 89 0.0 0.0 0.00 0.00 0.00 65 1016.7
20260903142003 88 0.0 0.0 0.00 0.00 0.00 66 1016.8
20260903141507 88 0.0 0.0 0.00 0.00 0.00 69 1016.8
20260903141013 87 0.0 0.0 0.00 0.00 0.00 70 1016.8
20260903140507 86 0.0 0.0 0.00 0.00 0.00 72 1016.8
20260903140014 85 0.0 0.0 0.00 0.00 0.00 73 1016.9
20260903135504 84 0.0 0.0 0.00 0.00 0.00 74 1016.9
20260903135004 84 0.0 0.0 0.00 0.00 0.00 75 1016.9
20260903134529 83 0.0 0.0 0.00 0.00 0.00 77 1016.8
20260903134012 82 0.0 0.0 0.00 0.00 0.00 79 1016.8
20260903133509 81 0.0 0.0 0.00 0.00 0.00 80 1016.8
20260903133014 80 0.0 0.0 0.00 0.00 0.00 82 1016.9
20260903132508 79 0.0 0.0 0.00 0.00 0.00 82 1016.9
20260903132004 78 0.0 0.0 0.00 0.00 0.00 83 1016.9
20260903131514 77 0.0 0.0 0.00 0.00 0.00 85 1016.9
20260903131004 76 0.0 0.0 0.00 0.00 0.00 88 1016.8
20260903130503 75 0.0 0.0 0.00 0.00 0.00 89 1016.8
20260903130011 74 0.0 0.0 0.00 0.00 0.00 91 1016.8
20260903125506 73 0.0 0.0 0.00 0.00 0.00 92 1016.8
20260903125007 72 0.0 0.0 0.00 0.00 0.00 93 1016.8
20260903124515 72 0.0 0.0 0.00 0.00 0.00 93 1016.8
20260903124008 71 0.0 0.0 0.00 0.00 0.00 94 1016.8
20260903123509 71 0.0 0.0 0.00 0.00 0.00 94 1016.8
20260903123022 70 0.0 0.0 0.00 0.00 0.00 94 1016.8
20260903122504 70 0.0 0.0 0.00 0.00 0.00 94 1016.7
20260903122008 70 0.0 0.0 0.00 0.00 0.00 94 1016.7
20260903121525 69 0.0 0.0 0.00 0.00 0.00 94 1016.7
20260903121009 69 0.0 0.0 0.00 0.00 0.00 94 1016.7
20260903120509 69 0.0 0.0 0.00 0.00 0.00 95 1016.7
20260903120007 69 0.0 0.0 0.00 0.00 0.00 95 1016.6
20260903115503 69 0.0 0.0 0.00 0.00 0.00 95 1016.6
20260903115004 69 0.0 0.0 0.00 0.00 0.00 95 1016.6
20260903114519 69 0.0 0.0 0.00 0.00 0.00 95 1016.5
20260903114008 69 0.0 0.0 0.00 0.00 0.00 95 1016.5
20260903113510 69 0.0 0.0 0.00 0.00 0.00 95 1016.5
20260903113016 69 0.0 0.0 0.00 0.00 0.00 94 1016.5
20260903112514 69 0.0 0.0 0.00 0.00 0.00 94 1016.4
20260903112008 69 0.0 0.0 0.00 0.00 0.00 94 1016.4
20260903111511 69 0.0 0.0 0.00 0.00 0.00 95 1016.4
20260903111011 69 0.0 0.0 0.00 0.00 0.00 94 1016.4
20260903110510 69 0.0 0.0 0.00 0.00 0.00 94 1016.4
20260903110020 69 0.0 0.0 0.00 0.00 0.00 94 1016.4
20260903105507 69 0.0 0.0 0.00 0.00 0.00 94 1016.4
20260903105011 70 0.0 0.0 0.00 0.00 0.00 94 1016.3
20260903104510 70 0.0 0.0 0.00 0.00 0.00 94 1016.2
20260903104007 70 0.0 0.0 0.00 0.00 0.00 94 1016.3
20260903103508 70 0.0 0.0 0.00 0.00 0.00 94 1016.2
20260903103016 70 0.0 0.0 0.00 0.00 0.00 94 1016.2
20260903102507 70 0.0 0.0 0.00 0.00 0.00 94 1016.2
20260903102010 70 0.0 0.0 0.00 0.00 0.00 94 1016.1
20260903101518 70 0.0 0.0 0.00 0.00 0.00 94 1016.0
20260903101009 70 0.0 0.0 0.00 0.00 0.00 93 1016.1
20260903100512 70 0.0 0.0 0.00 0.00 0.00 93 1016.0
20260903100019 70 0.0 0.0 0.00 0.00 0.00 93 1015.9
20260903095511 70 0.0 0.0 0.00 0.00 0.00 93 1015.9
20260903095011 70 0.0 0.0 0.00 0.00 0.00 93 1016.0
20260903094518 70 0.0 0.0 0.00 0.00 0.00 93 1015.9
20260903094012 70 0.0 0.0 0.00 0.00 0.00 93 1015.9
20260903093513 70 0.0 0.0 0.00 0.00 0.00 93 1015.8
20260903093017 71 0.0 0.0 0.00 0.00 0.00 92 1015.7
20260903092510 71 0.0 0.0 0.00 0.00 0.00 92 1015.7
20260903092010 71 0.0 0.0 0.00 0.00 0.00 92 1015.6
20260903091516 71 0.0 0.0 0.00 0.00 0.00 92 1015.7
20260903091006 71 0.0 0.0 0.00 0.00 0.00 92 1015.7
20260903090508 71 0.0 0.0 0.00 0.00 0.00 92 1015.6
20260903090021 71 0.0 0.0 0.00 0.00 0.00 92 1015.6
20260903085512 71 0.0 0.0 0.00 0.00 0.00 92 1015.7
20260903085008 71 0.0 0.0 0.00 0.00 0.00 92 1015.7
20260903084523 71 0.0 0.0 0.00 0.00 0.00 91 1015.5
20260903084010 71 0.0 0.0 0.00 0.00 0.00 91 1015.5
20260903083506 71 0.0 0.0 0.00 0.00 0.00 91 1015.5
20260903083023 71 0.0 0.0 0.00 0.00 0.00 91 1015.5
20260903082513 71 0.0 0.0 0.00 0.00 0.00 90 1015.5
20260903082011 72 0.0 0.0 0.00 0.00 0.00 91 1015.5
20260903081531 72 0.0 0.0 0.00 0.00 0.00 90 1015.5
20260903081008 72 0.0 0.0 0.00 0.00 0.00 90 1015.4
20260903080509 72 0.0 0.0 0.00 0.00 0.00 90 1015.4
20260903080016 72 0.0 0.0 0.00 0.00 0.00 90 1015.2
20260903075513 72 0.0 0.0 0.00 0.00 0.00 90 1015.2
20260903075013 72 0.0 0.0 0.00 0.00 0.00 90 1015.2
20260903074527 72 0.0 0.0 0.00 0.00 0.00 89 1015.3
20260903074010 72 0.0 0.0 0.00 0.00 0.00 89 1015.3
20260903073512 72 0.0 0.0 0.00 0.00 0.00 88 1015.2
20260903073030 73 0.0 0.0 0.00 0.00 0.00 88 1015.2
20260903072507 73 0.0 0.0 0.00 0.00 0.00 88 1015.3
20260903072015 73 0.0 0.0 0.00 0.00 0.00 88 1015.3
20260903071524 73 0.0 0.0 0.00 0.00 0.00 88 1015.3
20260903071012 73 0.0 0.0 0.00 0.00 0.00 88 1015.4
20260903070508 73 0.0 0.0 0.00 0.00 0.00 88 1015.4
20260903070018 73 0.0 0.0 0.00 0.00 0.00 88 1015.4
20260903065510 73 0.0 0.0 0.00 0.00 0.00 88 1015.4
20260903065015 73 0.0 0.0 0.00 0.00 0.00 88 1015.4
20260903064526 73 0.0 0.0 0.00 0.00 0.00 88 1015.4
20260903064012 73 0.0 0.0 0.00 0.00 0.00 87 1015.4
20260903063503 73 0.0 0.0 0.00 0.00 0.00 87 1015.5
20260903063004 73 0.0 0.0 0.00 0.00 0.00 87 1015.5
20260903062503 74 0.0 0.0 0.00 0.00 0.00 87 1015.4
20260903062004 74 0.0 0.0 0.00 0.00 0.00 86 1015.5
20260903061509 74 0.0 0.0 0.00 0.00 0.00 86 1015.5
20260903061005 74 0.0 0.0 0.00 0.00 0.00 85 1015.5
20260903060503 74 0.0 0.0 0.00 0.00 0.00 85 1015.6
20260903060012 74 0.0 0.0 0.00 0.00 0.00 85 1015.7
20260903055507 75 0.0 0.0 0.00 0.00 0.00 84 1015.6
20260903055003 75 0.0 0.0 0.00 0.00 0.00 84 1015.6
20260903054512 75 0.0 0.0 0.00 0.00 0.00 83 1015.6
20260903054007 75 0.0 0.0 0.00 0.00 0.00 83 1015.6
20260903053502 75 0.0 0.0 0.00 0.00 0.00 83 1015.6
20260903053009 75 0.0 0.0 0.00 0.00 0.00 83 1015.6
20260903052503 75 0.0 0.0 0.00 0.00 0.00 83 1015.6
20260903052004 75 0.0 0.0 0.00 0.00 0.00 83 1015.5
20260903051504 75 0.0 0.0 0.00 0.00 0.00 83 1015.6
20260903051004 75 0.0 0.0 0.00 0.00 0.00 83 1015.6
20260903050503 75 0.0 0.0 0.00 0.00 0.00 83 1015.6
20260903050012 75 0.0 0.0 0.00 0.00 0.00 83 1015.5
20260903045505 75 0.0 0.0 0.00 0.00 0.00 83 1015.5
20260903045007 75 0.0 0.0 0.00 0.00 0.00 83 1015.4
20260903044517 75 0.0 0.0 0.00 0.00 0.00 83 1015.4
20260903044003 75 0.0 0.0 0.00 0.00 0.00 83 1015.4
20260903043502 75 0.0 0.0 0.00 0.00 0.00 83 1015.4
20260903043019 75 0.0 0.0 0.00 0.00 0.00 83 1015.4
20260903042513 76 0.0 0.0 0.00 0.00 0.00 82 1015.4
20260903042003 76 0.0 0.0 0.00 0.00 0.00 82 1015.4
20260903041504 76 0.0 0.0 0.00 0.00 0.00 81 1015.4
20260903041003 76 0.0 0.0 0.00 0.00 0.00 82 1015.4
20260903040503 76 0.0 0.0 0.00 0.00 0.00 81 1015.4
20260903040009 76 0.0 0.0 0.00 0.00 0.00 81 1015.4
20260903035503 77 0.0 0.0 0.00 0.00 0.00 80 1015.5
20260903035006 77 0.0 0.0 0.00 0.00 0.00 80 1015.5
20260903034506 77 0.0 0.0 0.00 0.00 0.00 80 1015.5
20260903034006 77 0.0 0.0 0.00 0.00 0.00 80 1015.6
20260903033510 77 0.0 0.0 0.00 0.00 0.00 81 1015.5
20260903033004 77 0.0 0.0 0.00 0.00 0.00 81 1015.5
20260903032506 77 0.0 0.0 0.00 0.00 0.00 81 1015.5
20260903032007 77 0.0 0.0 0.00 0.00 0.00 81 1015.5
20260903031531 78 0.0 0.0 0.00 0.00 0.00 80 1015.5
20260903031003 78 0.0 0.0 0.00 0.00 0.00 79 1015.5
20260903030504 78 0.0 0.0 0.00 0.00 0.00 79 1015.5
20260903030005 78 0.0 0.0 0.00 0.00 0.00 79 1015.5
20260903025507 78 0.0 0.0 0.00 0.00 0.00 78 1015.5
20260903025004 79 0.0 0.0 0.00 0.00 0.00 78 1015.5
20260903024511 79 0.0 0.0 0.00 0.00 0.00 77 1015.5
20260903024004 79 0.0 0.0 0.00 0.00 0.00 77 1015.4
20260903023503 79 0.0 0.0 0.00 0.00 0.00 76 1015.4
20260903023018 80 0.0 0.0 0.00 0.00 0.00 76 1015.3
20260903022511 80 0.0 0.0 0.00 0.00 0.00 76 1015.3
20260903022010 80 0.0 0.0 0.00 0.00 0.00 75 1015.3
20260903021532 81 0.0 0.0 0.00 0.00 0.00 74 1015.3
20260903021008 81 0.0 0.0 0.00 0.00 0.00 74 1015.2
20260903020513 81 0.0 0.0 0.00 0.00 0.00 73 1015.2
20260903020007 81 0.0 0.0 0.00 0.00 0.00 72 1015.1
20260903015508 82 0.0 0.0 0.00 0.00 0.00 72 1015.1
20260903015003 82 0.0 0.0 0.00 0.00 0.00 71 1014.9
20260903014509 83 0.0 0.0 0.00 0.00 0.00 70 1014.9
20260903014004 83 0.0 0.0 0.00 0.00 0.00 69 1014.8
20260903013505 84 0.0 0.0 0.00 0.00 0.00 68 1014.7
20260903013023 84 0.0 0.0 0.00 0.00 0.00 68 1014.7
20260903012503 84 0.0 0.0 0.00 0.00 0.00 67 1014.6
20260903012010 85 0.0 0.0 0.00 0.00 0.00 66 1014.5
20260903011521 85 0.0 0.0 0.00 0.00 0.00 66 1014.5
20260903011012 86 0.0 0.0 0.00 0.00 0.00 64 1014.5
20260903010503 87 0.0 0.0 0.00 0.00 0.00 62 1014.4
20260903010020 88 0.0 0.0 0.00 0.00 0.00 60 1014.3
20260903005514 89 0.0 0.0 0.00 0.00 0.00 59 1014.4
20260903005003 89 0.0 0.0 0.00 0.00 0.00 58 1014.4
20260903004524 90 0.0 0.0 0.00 0.00 0.00 58 1014.3
20260903004004 90 0.0 0.0 0.00 0.00 0.00 57 1014.3
20260903003505 91 0.0 0.0 0.00 0.00 0.00 56 1014.3
20260903003008 91 0.0 0.0 0.00 0.00 0.00 55 1014.3
20260903002503 92 0.0 0.0 0.00 0.00 0.00 55 1014.4
20260903002008 92 0.0 0.0 0.00 0.00 0.00 54 1014.3
20260903001507 93 0.0 0.0 0.00 0.00 0.00 53 1014.2
20260903001008 93 0.0 0.0 0.00 0.00 0.00 52 1014.2
20260903000509 94 0.0 0.0 0.00 0.00 0.00 52 1014.2
20260903000018 94 0.0 0.0 0.00 0.00 0.00 52 1014.2
20260902235504 94 0.0 0.0 0.00 0.00 0.00 51 1014.1
20260902235008 95 0.0 0.0 0.00 0.00 0.00 51 1014.2
20260902234525 95 0.0 0.0 0.00 0.00 0.00 50 1014.1
20260902234010 95 0.0 0.0 0.00 0.00 0.00 50 1014.1
20260902233504 96 0.0 0.0 0.00 0.00 0.00 49 1014.1
20260902233023 96 0.0 0.0 0.00 0.00 0.00 49 1014.1
20260902232504 96 0.0 0.0 0.00 0.00 0.00 49 1014.1
20260902232005 96 0.0 0.0 0.00 0.00 0.00 49 1014.1
20260902231512 96 0.0 0.0 0.00 0.00 0.00 49 1014.2
20260902231008 97 0.0 0.0 0.00 0.00 0.00 47 1014.2
20260902230507 97 0.0 0.0 0.00 0.00 0.00 46 1014.2
20260902230015 96 0.0 0.0 0.00 0.00 0.00 48 1014.2
20260902225512 95 0.0 0.0 0.00 0.00 0.00 48 1014.2
20260902225010 95 0.0 0.0 0.00 0.00 0.00 48 1014.3
20260902224510 95 0.0 0.0 0.00 0.00 0.00 48 1014.3
20260902224006 95 0.0 0.0 0.00 0.00 0.00 48 1014.3
20260902223511 95 0.0 0.0 0.00 0.00 0.00 49 1014.3
20260902223026 95 0.0 0.0 0.00 0.00 0.00 49 1014.4
20260902222508 95 0.0 0.0 0.00 0.00 0.00 49 1014.3
20260902222010 95 0.0 0.0 0.00 0.00 0.00 49 1014.3
20260902221526 96 0.0 0.0 0.00 0.00 0.00 48 1014.4
20260902221003 96 0.0 0.0 0.00 0.00 0.00 48 1014.4
20260902220507 96 0.0 0.0 0.00 0.00 0.00 47 1014.4
20260902220019 96 0.0 0.0 0.00 0.00 0.00 47 1014.4
20260902215508 96 0.0 0.0 0.00 0.00 0.00 47 1014.5
20260902215008 96 0.0 0.0 0.00 0.00 0.00 48 1014.5
20260902214518 95 0.0 0.0 0.00 0.00 0.00 49 1014.5